TimeMDT,TemperatureF,Dew PointF,Humidity,Sea Level PressureIn,VisibilityMPH,Wind Direction,Wind SpeedMPH,Gust SpeedMPH,PrecipitationIn,Events,Conditions,WindDirDegrees,DateUTC
12:07 AM,24.8,21.2,86,29.88,1.2,ENE,6.9,-,0.00,Snow,Light Snow,70,2013-03-22 06:07:00
12:18 AM,24.8,21.2,86,29.88,1.0,ENE,6.9,-,0.00,Snow,Light Snow,70,2013-03-22 06:18:00
12:32 AM,24.8,21.2,86,29.88,1.2,ENE,5.8,-,0.01,Snow,Light Snow,70,2013-03-22 06:32:00
12:53 AM,24.1,21.9,91,29.96,1.2,East,5.8,-,0.01,Snow,Light Snow,80,2013-03-22 06:53:00
1:05 AM,24.8,21.2,86,29.88,1.5,East,6.9,-,0.00,Snow,Light Snow,80,2013-03-22 07:05:00
1:48 AM,24.8,21.2,86,29.87,1.2,East,9.2,-,0.00,Snow,Light Snow,80,2013-03-22 07:48:00
1:53 AM,24.1,21.0,88,29.96,1.0,East,9.2,-,0.00,Snow,Light Snow,80,2013-03-22 07:53:00
2:17 AM,23.0,19.4,86,29.87,0.5,ENE,8.1,-,0.01,Fog-Snow,Snow,60,2013-03-22 08:17:00
2:34 AM,21.2,19.4,93,29.87,1.0,ENE,8.1,-,0.01,Snow,Light Snow,60,2013-03-22 08:34:00
2:50 AM,21.2,19.4,93,29.87,1.2,ENE,8.1,-,0.01,Snow,Light Snow,60,2013-03-22 08:50:00
2:53 AM,21.9,19.0,89,29.96,1.2,ENE,10.4,-,0.01,Snow,Light Snow,60,2013-03-22 08:53:00
3:53 AM,21.0,18.0,88,29.96,1.5,ENE,9.2,-,0.01,Snow,Light Snow,60,2013-03-22 09:53:00
4:26 AM,21.2,17.6,86,29.87,1.0,ENE,9.2,-,0.00,Snow,Light Snow,60,2013-03-22 10:26:00
4:39 AM,21.2,17.6,86,29.87,1.5,ENE,9.2,-,0.00,Snow,Light Snow,60,2013-03-22 10:39:00
4:50 AM,21.2,17.6,86,29.87,2.5,NE,8.1,-,0.00,Snow,Light Snow,50,2013-03-22 10:50:00
4:53 AM,21.0,17.1,85,29.96,2.5,ENE,8.1,-,0.00,Snow,Light Snow,60,2013-03-22 10:53:00
5:11 AM,21.2,17.6,86,29.88,3.0,ENE,5.8,-,0.00,Snow,Light Snow,60,2013-03-22 11:11:00
5:18 AM,21.2,17.6,86,29.88,3.0,NE,5.8,-,0.00,Snow,Light Snow,50,2013-03-22 11:18:00
5:53 AM,21.0,17.1,85,29.98,5.0,NNE,3.5,-,0.00,,Overcast,30,2013-03-22 11:53:00
6:40 AM,21.2,17.6,86,29.89,1.8,North,5.8,-,0.00,Snow,Light Snow,10,2013-03-22 12:40:00
6:53 AM,21.0,17.1,85,29.98,1.8,North,5.8,-,0.00,Snow,Light Snow,360,2013-03-22 12:53:00
7:02 AM,21.2,17.6,86,29.89,2.5,North,5.8,-,0.00,Snow,Light Snow,350,2013-03-22 13:02:00
7:12 AM,21.2,17.6,86,29.89,1.2,NW,5.8,-,0.00,Snow,Light Snow,320,2013-03-22 13:12:00
7:17 AM,21.2,17.6,86,29.90,0.8,NW,5.8,-,0.00,Snow,Light Snow,310,2013-03-22 13:17:00
7:53 AM,21.0,18.0,88,30.00,0.8,WNW,6.9,-,0.00,Snow,Light Snow,300,2013-03-22 13:53:00
8:53 AM,21.9,18.0,85,30.01,0.8,North,11.5,-,0.00,Snow,Light Snow,350,2013-03-22 14:53:00
9:53 AM,21.9,16.0,78,30.02,1.0,NNW,15.0,-,0.00,Snow,Light Snow,340,2013-03-22 15:53:00
10:28 AM,21.2,15.8,80,29.93,0.8,North,15.0,-,0.00,Snow,Light Snow,350,2013-03-22 16:28:00
10:35 AM,21.2,15.8,80,29.93,1.0,North,11.5,-,0.00,Snow,Light Snow,350,2013-03-22 16:35:00
10:42 AM,21.2,15.8,80,29.94,1.2,NNW,9.2,-,0.00,Snow,Light Snow,330,2013-03-22 16:42:00
10:53 AM,21.0,15.1,78,30.05,1.5,NNW,10.4,-,0.00,Snow,Light Snow,330,2013-03-22 16:53:00
11:05 AM,21.2,15.8,80,29.95,0.8,NW,12.7,-,0.00,Snow,Light Snow,320,2013-03-22 17:05:00
11:45 AM,21.2,15.8,80,29.96,1.2,NNW,13.8,-,0.00,Snow,Light Snow,330,2013-03-22 17:45:00
11:53 AM,21.0,15.1,78,30.06,1.2,NNW,12.7,-,0.00,Snow,Light Snow,340,2013-03-22 17:53:00
12:05 PM,19.4,15.8,86,29.97,1.0,NW,15.0,-,0.01,Snow,Light Snow,310,2013-03-22 18:05:00
12:20 PM,19.4,14.0,80,29.97,2.0,NW,16.1,-,0.01,Snow,Light Snow,320,2013-03-22 18:20:00
12:25 PM,19.4,12.2,74,29.97,3.0,NW,13.8,-,0.01,Snow,Light Snow,320,2013-03-22 18:25:00
12:29 PM,19.4,14.0,80,29.97,3.0,NW,15.0,-,0.01,Snow,Light Snow,320,2013-03-22 18:29:00
12:41 PM,19.4,12.2,74,29.98,2.5,NNW,15.0,-,0.01,Snow,Light Snow,330,2013-03-22 18:41:00
12:53 PM,19.9,12.9,74,30.08,2.5,NNW,12.7,-,0.01,Snow,Light Snow,330,2013-03-22 18:53:00
1:02 PM,19.4,14.0,80,29.98,1.2,NW,15.0,-,0.00,Snow,Light Snow,310,2013-03-22 19:02:00
1:09 PM,19.4,14.0,80,29.98,1.0,NW,16.1,-,0.00,Snow,Light Snow,320,2013-03-22 19:09:00
1:17 PM,19.4,12.2,74,29.99,1.2,NW,17.3,-,0.00,Snow,Light Snow,310,2013-03-22 19:17:00
1:53 PM,19.9,14.0,78,30.09,1.8,NW,17.3,-,0.00,Snow,Light Snow,320,2013-03-22 19:53:00
2:05 PM,19.4,12.2,74,29.99,2.0,NW,19.6,-,0.00,Snow,Light Snow,320,2013-03-22 20:05:00
2:23 PM,19.4,12.2,74,30.00,4.0,NW,18.4,-,0.00,Snow,Light Snow,320,2013-03-22 20:23:00
2:40 PM,21.2,14.0,74,30.00,2.0,NW,16.1,-,0.00,Snow,Light Snow,320,2013-03-22 20:40:00
2:48 PM,19.4,12.2,74,30.00,1.5,NW,18.4,-,0.00,Snow,Light Snow,320,2013-03-22 20:48:00
2:53 PM,19.9,12.9,74,30.10,1.5,NW,16.1,-,0.00,Snow,Light Snow,320,2013-03-22 20:53:00
3:04 PM,19.4,12.2,74,30.00,2.0,NW,16.1,-,0.00,Snow,Light Snow,320,2013-03-22 21:04:00
3:18 PM,19.4,12.2,74,30.01,1.8,NW,16.1,-,0.00,Snow,Light Snow,320,2013-03-22 21:18:00
3:53 PM,19.9,14.0,78,30.12,1.8,NW,13.8,-,0.00,Snow,Light Snow,320,2013-03-22 21:53:00
4:00 PM,19.4,12.2,74,30.02,2.5,NW,13.8,-,0.00,Snow,Light Snow,320,2013-03-22 22:00:00
4:08 PM,19.4,12.2,74,30.03,3.0,NW,17.3,-,0.00,Snow,Light Snow,320,2013-03-22 22:08:00
4:16 PM,19.4,12.2,74,30.03,2.5,NW,16.1,-,0.00,Snow,Light Snow,320,2013-03-22 22:16:00
4:23 PM,19.4,12.2,74,30.03,3.0,NW,13.8,-,0.00,Snow,Light Snow,320,2013-03-22 22:23:00
4:53 PM,19.9,12.9,74,30.14,6.0,NW,13.8,-,0.00,,Haze,310,2013-03-22 22:53:00
5:09 PM,19.4,14.0,80,30.04,2.0,NW,12.7,-,0.00,Snow,Light Snow,310,2013-03-22 23:09:00
5:22 PM,19.4,14.0,80,30.05,3.0,WNW,12.7,-,0.00,,Haze,300,2013-03-22 23:22:00
5:53 PM,19.9,12.0,71,30.16,5.0,NW,11.5,-,0.00,,Haze,310,2013-03-22 23:53:00
6:11 PM,19.4,12.2,74,30.06,2.5,NW,11.5,-,0.00,Snow,Light Snow,310,2013-03-23 00:11:00
6:22 PM,19.4,12.2,74,30.06,4.0,NW,10.4,-,0.00,,Haze,310,2013-03-23 00:22:00
6:40 PM,19.4,12.2,74,30.07,2.5,NW,11.5,-,0.00,Snow,Light Snow,310,2013-03-23 00:40:00
6:53 PM,19.0,12.0,74,30.17,5.0,NW,13.8,-,0.00,,Haze,310,2013-03-23 00:53:00
7:53 PM,18.0,10.0,71,30.19,10.0,WNW,12.7,-,N/A,,Overcast,300,2013-03-23 01:53:00
8:53 PM,18.0,10.9,74,30.20,10.0,West,9.2,-,N/A,,Overcast,270,2013-03-23 02:53:00
9:53 PM,17.1,10.0,74,30.21,10.0,West,9.2,-,N/A,,Mostly Cloudy,280,2013-03-23 03:53:00
10:53 PM,17.1,10.0,74,30.22,10.0,WNW,13.8,-,N/A,,Scattered Clouds,290,2013-03-23 04:53:00
11:53 PM,17.1,10.9,77,30.23,8.0,WNW,15.0,-,N/A,,Overcast,300,2013-03-23 05:53:00